YZ-1S DEB (43644 NORAD) Tracking and Keplerian Element Data

This shows tracking and keplerian element data for the satellite.

Feedback or suggestion? Click here.




ElementValue
Catalog43644
NameYZ-1S DEB
Epoch Orbit431
Epoch Day311.70255334
Epoch Year2018
RAAN2.1998
Inclination98.2767
Eccentricity0.0009396
Argument of Perigee152.8271
Mean Anonmoly207.3422
Mean Motion14.59731769
Decay Rate2.68E-06
L11 43644U 18077C 18311.70255334 .00000268 00000-0 66029-4 0 9990
L22 43644 98.2767 2.1998 0009396 152.8271 207.3422 14.59731769 4314

Live tracking and technical data element details for YZ-1S DEB (NORAD 43644). YZ-1S DEB can be tracked NOW for your location showing map with azimuth and elevation plus other details from your city location.

Track the satellite on the map from your city or location and see movement details for azimuth, elevation, latitude, longitude, range, height, and movement on the map or in text.







IsCatalogInMostPopularTable: catalog: 43644, numindb: 28
Update: records affected: 1



GetName: 43644 YZ-1S DEB

Hit Count: updated at: Tue, 20 Nov 2018 11:47:49 GMT